[[{"header":{"parameterUnit":"m.s-1","parameterCategory":2,"la1":30.2991,"la2":30.254,"lo1":-89.0895,"lo2":-89.0444,"dy":0.0017,"dx":0.0017,"nx":28,"ny":28,"refTime":"2026-02-07T03:00:00:Z","depth":"0","parameterNumber":2,"parameterNumberName":"U-component_of_CURRENTS"},"data":[0,0,0,0,0,0,0,0,0,0,0,0,0,0,0,0,0,0,0,0,0,0,0,0,0,0,0,0,0,0,0,0,0,0,0,0,0,0,0,0,0,0,0,0,0,0,0,0,0,0,0,0,0,0,0,0,0,0,-0.4242,-0.4241,0,-0.4161,-0.4159,-0.4158,-0.412,-0.4121,-0.4121,-0.4121,-0.4017,-0.4015,-0.4011,0,0,0,0,0,0,0,0,0,0,0,0,0,-0.4167,-0.417,-0.4242,-0.4241,-0.424,-0.4161,-0.4159,-0.4158,-0.412,-0.4121,-0.4121,-0.4122,-0.4019,-0.4015,-0.4011,0,0,0,0,0,0,0,0,0,0,0,0,0,-0.4152,-0.4171,-0.4242,-0.4214,-0.4211,-0.4161,-0.4159,-0.4158,-0.412,-0.4121,-0.4121,-0.4122,-0.402,-0.4015,-0.4011,-0.3973,0,0,-0.3997,-0.3995,0,0,0,0,0,0,0,0,-0.4153,-0.4155,-0.4219,-0.4216,-0.4212,-0.4154,-0.4095,-0.4096,-0.412,-0.4152,-0.4121,-0.4122,-0.4062,-0.4054,-0.4034,-0.3968,-0.3963,-0.3996,-0.3993,-0.3991,-0.399,0,0,0,0,0,0,0,-0.4155,-0.4157,-0.4207,-0.4218,-0.4214,-0.4138,-0.4138,-0.4094,-0.4103,-0.4149,-0.4147,-0.4142,-0.406,-0.4039,-0.4032,-0.3962,-0.3996,-0.3992,-0.3989,-0.3988,-0.3826,-0.3825,0,0,0,0,0,0,-0.4181,-0.4159,-0.4209,-0.4204,-0.4186,-0.414,-0.414,-0.417,-0.4104,-0.4095,-0.4142,-0.4141,-0.4046,-0.4037,-0.4028,-0.396,-0.3992,-0.3987,-0.3985,-0.3828,-0.3826,-0.3824,0,0,0,0,0,0,-0.418,-0.4187,-0.4213,-0.4179,-0.4178,-0.4143,-0.4175,-0.4168,-0.4143,-0.4099,-0.4089,-0.4125,-0.4046,-0.4034,-0.3975,-0.3957,-0.3985,-0.3981,-0.383,-0.3827,-0.3825,-0.3838,0,0,0,0,0,0,-0.4179,-0.4189,-0.4208,-0.4183,-0.4181,-0.4176,-0.4175,-0.4166,-0.4141,-0.4139,-0.4081,-0.4073,-0.4046,-0.3982,-0.3971,-0.3951,-0.3977,-0.3832,-0.3829,-0.3826,-0.3839,-0.3836,-0.3833,0,0,0,0,0,-0.4177,-0.4198,-0.421,-0.4215,-0.4215,-0.4176,-0.4166,-0.4139,-0.414,-0.412,-0.4081,-0.4074,-0.3956,-0.3977,-0.3964,-0.3943,-0.3833,-0.383,-0.3826,-0.384,-0.3837,-0.3833,0,0,0,0,0,0,-0.4195,-0.4196,-0.4209,-0.4238,-0.4209,-0.417,-0.4151,-0.4137,-0.409,-0.4092,-0.4051,-0.4038,-0.3982,-0.3954,-0.3979,-0.3886,-0.3894,-0.3888,-0.3909,-0.3905,-0.3903,-0.3918,-0.3974,0,0,0,0,0,-0.4209,-0.4204,-0.4206,-0.4218,-0.4216,-0.4185,-0.4165,-0.4151,-0.4112,-0.4092,-0.4052,-0.4006,-0.3956,-0.3927,-0.3882,-0.3827,-0.3796,-0.3804,-0.3801,-0.3799,-0.3801,-0.3747,-0.374,-0.3813,-0.3813,-0.3813,0,0,-0.4206,-0.4213,-0.4206,-0.4216,-0.4197,-0.4188,-0.4173,-0.4147,-0.4126,-0.4087,-0.4038,-0.3995,-0.3939,-0.3881,-0.3853,-0.3856,-0.3755,-0.3795,-0.3794,-0.3796,-0.3743,-0.3736,-0.373,-0.3811,-0.3811,-0.3812,0,0,-0.42,-0.4225,-0.4222,-0.4209,-0.4195,-0.4176,-0.4173,-0.414,-0.4113,-0.4062,-0.403,-0.3974,-0.39,-0.3853,-0.3822,-0.3773,-0.3744,-0.3757,-0.3751,-0.3699,-0.3694,-0.3688,-0.3616,-0.3604,-0.3753,-0.3753,-0.3753,0,-0.4201,-0.4221,-0.4208,-0.4216,-0.4195,-0.4178,-0.4168,-0.4142,-0.4085,-0.4051,-0.405,-0.3926,-0.3887,-0.3807,-0.3793,-0.3768,-0.3729,-0.3774,-0.3698,-0.3692,-0.3686,-0.3614,-0.3601,-0.3753,-0.3753,-0.3753,-0.3753,0,-0.4196,-0.4215,-0.421,-0.4214,-0.4189,-0.4169,-0.4149,-0.4117,-0.4087,-0.4053,-0.3969,-0.3908,-0.3831,-0.381,-0.3788,-0.3718,-0.3698,-0.3706,-0.3715,-0.368,-0.3605,-0.3591,-0.3754,-0.3753,-0.3753,-0.3753,0,0,-0.417,-0.4201,-0.4198,-0.4196,-0.4184,-0.4154,-0.413,-0.4079,-0.4043,-0.3995,-0.3924,-0.3852,-0.3818,-0.378,-0.3738,-0.3698,-0.3619,-0.3688,-0.3685,-0.363,-0.3484,-0.3282,-0.3247,-0.3619,-0.3617,-0.3616,-0.344,0,-0.4161,-0.4188,-0.4186,-0.4163,-0.4166,-0.4136,-0.4098,-0.405,-0.4007,-0.3937,-0.3877,-0.3802,-0.3807,-0.3759,-0.372,-0.3649,-0.3587,-0.3665,-0.3514,-0.3509,-0.3345,-0.3226,-0.3145,-0.2966,-0.3427,-0.3424,-0.3423,0,-0.4142,-0.4161,-0.4172,-0.4136,-0.4128,-0.4107,-0.4026,-0.399,-0.3916,-0.3879,-0.3817,-0.3768,-0.3688,-0.37,-0.3572,-0.3623,-0.3549,-0.3502,-0.3494,-0.3294,-0.3279,-0.3077,-0.2923,-0.2894,-0.3401,-0.3403,-0.3404,0,-0.4111,-0.4123,-0.4127,-0.4123,-0.4103,-0.4071,-0.4033,-0.3969,-0.3914,-0.3842,-0.3795,-0.3711,-0.3637,-0.3573,-0.3459,-0.3519,-0.3301,-0.3371,-0.3113,-0.3098,-0.2991,-0.2968,-0.2801,-0.326,-0.3261,-0.3261,-0.3262,0,-0.4093,-0.4076,-0.4119,-0.4119,-0.4068,-0.4051,-0.3973,-0.394,-0.3865,-0.3769,-0.3761,-0.3659,-0.3605,-0.3471,-0.3414,-0.3175,-0.3253,-0.3067,-0.3021,-0.2985,-0.2965,-0.2904,-0.2954,-0.3255,-0.3256,-0.3257,-0.3258,0,-0.405,-0.4092,-0.4077,-0.4075,-0.4066,-0.402,-0.3941,-0.3868,-0.3842,-0.3719,-0.3689,-0.3592,-0.341,-0.3309,-0.3149,-0.3062,-0.2824,-0.2793,-0.2729,-0.2676,-0.2418,-0.2473,-0.2251,-0.2186,-0.25,-0.2493,-0.2488,0,-0.4031,-0.4043,-0.4049,-0.401,-0.4004,-0.3948,-0.3883,-0.3853,-0.3772,-0.3648,-0.3561,-0.3384,-0.3186,-0.2871,-0.2696,-0.2484,-0.2538,-0.2277,-0.2368,-0.2329,-0.236,-0.2433,-0.2404,-0.2242,-0.2235,-0.2229,-0.2225,0,-0.3949,-0.3964,-0.3936,-0.3893,-0.3837,-0.3753,-0.367,-0.3623,-0.3542,-0.3461,-0.3263,-0.311,-0.2819,-0.252,-0.2231,-0.2123,-0.2226,-0.2147,-0.2145,-0.2137,-0.2173,-0.2112,-0.2438,-0.2174,-0.2179,-0.2183,-0.2186,-0.2188,-0.3823,-0.3783,-0.3738,-0.3652,-0.3602,-0.3455,-0.3309,-0.3276,-0.312,-0.2941,-0.2947,-0.2709,-0.2458,-0.2034,-0.1886,-0.1642,-0.1791,-0.1636,-0.1703,-0.1778,-0.1705,-0.1868,-0.1525,-0.1526,-0.1527,-0.1528,-0.1529,0,-0.3553,-0.3518,-0.3468,-0.3303,-0.3135,-0.3198,-0.3048,-0.2883,-0.2671,-0.2668,-0.2508,-0.2232,-0.1902,-0.1711,-0.1414,-0.128,-0.1324,-0.1251,-0.1417,-0.1407,-0.1569,-0.1546,-0.1144,-0.1144,-0.1144,-0.1144,-0.1144,-0.1144,-0.3375,-0.3208,-0.3178,-0.2813,-0.2728,-0.2416,-0.2288,-0.2199,-0.2145,-0.1982,-0.19,-0.1866,-0.1639,-0.1502,-0.1234,-0.1146,-0.1166,-0.1101,-0.1129,-0.1349,-0.1395,-0.1439,-0.1427,-0.1006,-0.1006,-0.096,-0.096,-0.096]},{"header":{"parameterUnit":"m.s-1","parameterCategory":2,"la1":30.2991,"la2":30.254,"lo1":-89.0895,"lo2":-89.0444,"dy":0.0017,"dx":0.0017,"nx":28,"ny":28,"refTime":"2026-02-07T03:00:00:Z","depth":"0","parameterNumber":3,"parameterNumberName":"V-component_of_CURRENTS"},"data":[0,0,0,0,0,0,0,0,0,0,0,0,0,0,0,0,0,0,0,0,0,0,0,0,0,0,0,0,0,0,0,0,0,0,0,0,0,0,0,0,0,0,0,0,0,0,0,0,0,0,0,0,0,0,0,0,0,0,-0.0018,-0.0016,0,0.0212,0.0215,0.0218,0.0275,0.0273,0.0271,0.0269,0.0475,0.0482,0.0489,0,0,0,0,0,0,0,0,0,0,0,0,0,-0.0313,-0.0308,-0.0019,-0.0016,-0.0014,0.0212,0.0215,0.0219,0.0275,0.0273,0.027,0.0268,0.0473,0.0481,0.049,0,0,0,0,0,0,0,0,0,0,0,0,0,-0.014,-0.0306,-0.0019,0.0039,0.0046,0.0211,0.0216,0.022,0.0275,0.0273,0.027,0.0267,0.047,0.048,0.0491,0.0614,0,0,0.0524,0.0529,0,0,0,0,0,0,0,0,-0.015,-0.0129,0.0028,0.0035,0.0043,0.0208,0.0187,0.0349,0.0276,0.0192,0.0269,0.0266,0.0383,0.0401,0.0457,0.0624,0.0632,0.0525,0.0532,0.0536,0.0539,0,0,0,0,0,0,0,-0.0162,-0.0138,0.0077,0.0031,0.004,0.0087,0.0107,0.0219,0.0303,0.02,0.0203,0.0224,0.0387,0.0446,0.0462,0.0635,0.0525,0.0534,0.0541,0.0545,0.0816,0.0816,0,0,0,0,0,0,-0.0199,-0.0149,0.0069,0.0083,-0.0067,0.0093,0.0117,0.0161,0.0303,0.0321,0.0226,0.0225,0.0429,0.0449,0.0469,0.0548,0.0536,0.0546,0.0553,0.0815,0.0816,0.0816,0,0,0,0,0,0,-0.0206,-0.0181,0.006,-0.0033,0.0,0.01,0.0151,0.0167,0.022,0.0322,0.034,0.0258,0.0427,0.0454,0.0559,0.0558,0.0551,0.0561,0.0814,0.0815,0.0816,0.0753,0,0,0,0,0,0,-0.0215,-0.0184,-0.0153,-0.0034,0.0004,0.0158,0.0153,0.0174,0.0235,0.0237,0.0357,0.0374,0.0427,0.0542,0.0569,0.0573,0.057,0.0813,0.0815,0.0816,0.0754,0.0752,0.075,0,0,0,0,0,-0.0226,-0.0167,-0.0152,-0.0126,0.004,0.016,0.0186,0.0248,0.0239,0.0281,0.0345,0.037,0.0567,0.0554,0.0585,0.0591,0.0813,0.0814,0.0816,0.0755,0.0752,0.075,0,0,0,0,0,0,-0.0253,-0.0152,-0.0135,-0.0042,0.0045,0.0167,0.0218,0.0253,0.0343,0.0335,0.0412,0.0436,0.0515,0.0576,0.0557,0.0669,0.0683,0.0691,0.0626,0.0624,0.0622,0.0592,0.0579,0,0,0,0,0,-0.0252,-0.0199,-0.0091,-0.0019,0.0022,0.0117,0.0173,0.0213,0.0302,0.0339,0.0415,0.0487,0.0554,0.0603,0.0681,0.0777,0.083,0.0791,0.0788,0.0786,0.0782,0.0869,0.0874,0.0821,0.0821,0.0821,0,0,-0.0245,-0.0182,-0.0151,-0.0025,0.0046,0.0107,0.0146,0.0232,0.0268,0.035,0.0429,0.0494,0.0577,0.0657,0.0697,0.0706,0.083,0.0788,0.0785,0.0782,0.0871,0.0876,0.0881,0.0823,0.0822,0.0822,0,0,-0.0221,-0.0147,-0.011,-0.004,0.0055,0.0115,0.0132,0.025,0.0286,0.0382,0.0419,0.0489,0.062,0.067,0.0709,0.0754,0.0811,0.0766,0.0743,0.0828,0.0833,0.0837,0.091,0.0921,0.0769,0.0769,0.0769,0,-0.0225,-0.0163,-0.0075,-0.0023,0.0014,0.0106,0.014,0.0217,0.0346,0.037,0.0388,0.0546,0.062,0.0692,0.0694,0.0747,0.0801,0.0743,0.0824,0.0829,0.0836,0.0909,0.0922,0.0766,0.0766,0.0766,0.0767,0,-0.0192,-0.0138,-0.0103,-0.0033,0.0033,0.0086,0.0176,0.0235,0.0276,0.0337,0.0421,0.0532,0.061,0.0643,0.0688,0.0757,0.0782,0.0805,0.0824,0.0837,0.0913,0.0929,0.0762,0.0763,0.0764,0.0764,0,0,-0.0256,-0.0115,-0.0117,-0.0105,0.0017,0.0058,0.0129,0.0203,0.0218,0.034,0.037,0.0496,0.0542,0.059,0.0657,0.0739,0.0832,0.0785,0.0791,0.0844,0.1015,0.0961,0.0973,0.0869,0.0871,0.0873,0.1051,0,-0.0284,-0.0226,-0.0138,-0.0109,-0.0086,0.0015,0.0064,0.0143,0.0216,0.0281,0.0388,0.045,0.0525,0.055,0.0649,0.0787,0.087,0.0781,0.1006,0.1012,0.0953,0.0988,0.098,0.113,0.1066,0.1069,0.1071,0,-0.0333,-0.0289,-0.0262,-0.0192,-0.0174,-0.0139,-0.0089,-0.0026,0.01,0.0159,0.0258,0.0349,0.0485,0.0534,0.079,0.073,0.0861,0.0972,0.0982,0.0962,0.0986,0.111,0.1162,0.1237,0.1095,0.1093,0.1091,0,-0.0503,-0.0405,-0.0406,-0.0375,-0.0256,-0.0247,-0.0197,-0.0084,-0.0043,0.0074,0.0123,0.0293,0.0388,0.0576,0.081,0.0805,0.1087,0.111,0.1187,0.1185,0.1236,0.1233,0.1375,0.1277,0.1276,0.1276,0.1275,0,-0.0609,-0.0616,-0.0492,-0.0497,-0.0516,-0.0391,-0.0389,-0.0311,-0.0192,-0.011,0.0035,0.0151,0.0407,0.0603,0.0797,0.104,0.1084,0.1188,0.1229,0.1211,0.1204,0.1317,0.1359,0.1282,0.1281,0.128,0.1278,0,-0.0792,-0.0705,-0.0708,-0.0612,-0.0593,-0.0617,-0.0512,-0.0471,-0.0362,-0.0246,-0.021,0.0054,0.0331,0.0569,0.0898,0.102,0.1313,0.1314,0.1261,0.1289,0.1384,0.1422,0.1632,0.1743,0.1424,0.1424,0.1424,0,-0.087,-0.0887,-0.0829,-0.0813,-0.0769,-0.0758,-0.0707,-0.0589,-0.0505,-0.0263,-0.0186,0.0067,0.033,0.0737,0.0962,0.1244,0.137,0.1373,0.1349,0.1386,0.1463,0.1503,0.1585,0.1415,0.1414,0.1414,0.1414,0,-0.1011,-0.0994,-0.0981,-0.0945,-0.091,-0.0851,-0.0763,-0.0725,-0.0515,-0.0372,-0.0071,0.014,0.0487,0.0799,0.106,0.1239,0.1422,0.1372,0.146,0.1495,0.1508,0.1632,0.1289,0.1412,0.1412,0.1412,0.1412,0.1412,-0.1109,-0.113,-0.1075,-0.1024,-0.0969,-0.0838,-0.074,-0.0609,-0.0434,-0.0136,0.0017,0.0331,0.0621,0.1002,0.1176,0.1385,0.1449,0.1491,0.1549,0.1595,0.165,0.1264,0.1384,0.1384,0.1384,0.1384,0.1384,0,-0.1159,-0.1128,-0.1112,-0.0992,-0.0856,-0.083,-0.0654,-0.0491,-0.0207,-0.0082,0.0206,0.0515,0.0846,0.1084,0.1368,0.1537,0.1646,0.1653,0.1742,0.1835,0.1544,0.1485,0.157,0.157,0.157,0.157,0.157,0.157,-0.1171,-0.1141,-0.1085,-0.0838,-0.0728,-0.0476,-0.0325,-0.0145,-0.0019,0.0253,0.0394,0.0514,0.0812,0.1327,0.1647,0.1719,0.1931,0.1921,0.2066,0.1852,0.1842,0.1832,0.1787,0.1934,0.1935,0.2363,0.2367,0.2369]}],[{"header":{"parameterUnit":"m.s-1","parameterCategory":2,"la1":30.2991,"la2":30.254,"lo1":-89.0895,"lo2":-89.0444,"dy":0.0017,"dx":0.0017,"nx":28,"ny":28,"refTime":"2026-02-07T03:00:00:Z","depth":"2","parameterNumber":2,"parameterNumberName":"U-component_of_CURRENTS"},"data":[0,0,0,0,0,0,0,0,0,0,0,0,0,0,0,0,0,0,0,0,0,0,0,0,0,0,0,0,0,0,0,0,0,0,0,0,0,0,0,0,0,0,0,0,0,0,0,0,0,0,0,0,0,0,0,0,0,0,-0.3216,-0.3217,0,-0.3308,-0.3309,-0.3311,-0.3331,-0.333,-0.3329,-0.3329,-0.3343,-0.3344,-0.3346,0,0,0,0,0,0,0,0,0,0,0,0,0,-0.3074,-0.3077,-0.3216,-0.3217,-0.3218,-0.3308,-0.3309,-0.3311,-0.3331,-0.333,-0.3329,-0.3328,-0.3343,-0.3344,-0.3346,0,0,0,0,0,0,0,0,0,0,0,0,0,-0.315,-0.3078,-0.3216,-0.3237,-0.324,-0.3308,-0.3309,-0.3311,-0.3332,-0.333,-0.3329,-0.3328,-0.3342,-0.3344,-0.3346,-0.3383,0,0,-0.3351,-0.3352,0,0,0,0,0,0,0,0,-0.3146,-0.3156,-0.3233,-0.3236,-0.3239,-0.3305,-0.3265,-0.3331,-0.3332,-0.3299,-0.3329,-0.3327,-0.3323,-0.3326,-0.3351,-0.3384,-0.3385,-0.3352,-0.3353,-0.3354,-0.3354,0,0,0,0,0,0,0,-0.3141,-0.3152,-0.3255,-0.3234,-0.3238,-0.3247,-0.3257,-0.3278,-0.3317,-0.3302,-0.3303,-0.331,-0.3324,-0.3349,-0.3351,-0.3385,-0.3352,-0.3353,-0.3354,-0.3355,-0.3496,-0.3498,0,0,0,0,0,0,-0.3126,-0.3147,-0.3252,-0.3257,-0.3185,-0.3251,-0.3262,-0.3287,-0.3319,-0.3323,-0.3311,-0.3311,-0.3347,-0.3349,-0.3351,-0.3399,-0.3353,-0.3355,-0.3356,-0.3493,-0.3496,-0.3499,0,0,0,0,0,0,-0.3123,-0.3135,-0.3248,-0.3201,-0.3216,-0.3254,-0.3283,-0.3289,-0.3344,-0.3326,-0.3329,-0.3361,-0.3346,-0.3349,-0.3377,-0.3399,-0.3356,-0.3358,-0.349,-0.3494,-0.3498,-0.3492,0,0,0,0,0,0,-0.3119,-0.3134,-0.3174,-0.3201,-0.3218,-0.3331,-0.3284,-0.3292,-0.3347,-0.3348,-0.337,-0.3368,-0.3345,-0.3374,-0.3379,-0.3401,-0.3359,-0.3487,-0.3492,-0.3496,-0.3489,-0.3495,-0.3501,0,0,0,0,0,-0.3113,-0.3161,-0.3176,-0.319,-0.3264,-0.3334,-0.3347,-0.3368,-0.3351,-0.3406,-0.3385,-0.3369,-0.341,-0.3377,-0.3382,-0.3405,-0.3484,-0.349,-0.3496,-0.3486,-0.3494,-0.3501,0,0,0,0,0,0,-0.3137,-0.3168,-0.3185,-0.3247,-0.3308,-0.3337,-0.3384,-0.3396,-0.3429,-0.3406,-0.3393,-0.3392,-0.3424,-0.3435,-0.34,-0.3468,-0.345,-0.3457,-0.3441,-0.3449,-0.3455,-0.3409,-0.3361,0,0,0,0,0,-0.3158,-0.3195,-0.3243,-0.3301,-0.333,-0.3367,-0.3404,-0.3408,-0.3425,-0.3441,-0.3467,-0.3468,-0.3454,-0.3465,-0.3477,-0.3517,-0.3456,-0.3544,-0.355,-0.3555,-0.3526,-0.3437,-0.3429,-0.3519,-0.3519,-0.3519,0,0,-0.3173,-0.3206,-0.3224,-0.3308,-0.3348,-0.341,-0.3388,-0.3439,-0.3469,-0.3434,-0.3506,-0.3495,-0.3472,-0.3497,-0.3517,-0.3506,-0.3507,-0.3562,-0.3565,-0.3534,-0.3442,-0.3432,-0.3423,-0.3523,-0.3522,-0.3521,0,0,-0.3239,-0.3266,-0.333,-0.3381,-0.3443,-0.3453,-0.3478,-0.3537,-0.3547,-0.3604,-0.3557,-0.3544,-0.3614,-0.3557,-0.3535,-0.3592,-0.3539,-0.3642,-0.3628,-0.3543,-0.3532,-0.3522,-0.3449,-0.3433,-0.3645,-0.3645,-0.3645,0,-0.3303,-0.3332,-0.3367,-0.345,-0.3461,-0.348,-0.3529,-0.3562,-0.3624,-0.3596,-0.3636,-0.3624,-0.3619,-0.3545,-0.3566,-0.3594,-0.3551,-0.3588,-0.354,-0.3529,-0.3518,-0.3447,-0.3428,-0.3646,-0.3645,-0.3645,-0.3645,0,-0.3381,-0.343,-0.3469,-0.3555,-0.3599,-0.3625,-0.3653,-0.3688,-0.3693,-0.3694,-0.3671,-0.3655,-0.3624,-0.3646,-0.362,-0.355,-0.3546,-0.3547,-0.3499,-0.3507,-0.3434,-0.3414,-0.3646,-0.3646,-0.3646,-0.3646,0,0,-0.3435,-0.3516,-0.3522,-0.3545,-0.3615,-0.3642,-0.3679,-0.3672,-0.3638,-0.3708,-0.3658,-0.3646,-0.3614,-0.3588,-0.3558,-0.35,-0.34,-0.3505,-0.35,-0.3391,-0.3219,-0.3115,-0.3084,-0.3392,-0.3388,-0.3386,-0.3201,0,-0.3483,-0.3567,-0.3609,-0.3669,-0.3676,-0.3693,-0.3718,-0.371,-0.3693,-0.3676,-0.3606,-0.3575,-0.3599,-0.356,-0.3506,-0.3425,-0.3347,-0.345,-0.3263,-0.3257,-0.3127,-0.3056,-0.2857,-0.2666,-0.3181,-0.3178,-0.3176,0,-0.3496,-0.3528,-0.3572,-0.361,-0.3626,-0.3698,-0.3632,-0.3652,-0.3602,-0.3589,-0.3532,-0.3504,-0.3414,-0.3447,-0.3286,-0.3357,-0.328,-0.3227,-0.3218,-0.3096,-0.3114,-0.2744,-0.261,-0.3142,-0.3145,-0.3147,-0.3149,0,-0.3343,-0.348,-0.3473,-0.3496,-0.3577,-0.3604,-0.3637,-0.3607,-0.3558,-0.3509,-0.3458,-0.3393,-0.3323,-0.3244,-0.3173,-0.3213,-0.3,-0.3031,-0.2854,-0.2847,-0.2622,-0.26,-0.2875,-0.2875,-0.2876,-0.2876,-0.2877,0,-0.3254,-0.328,-0.3423,-0.3406,-0.3424,-0.3512,-0.3484,-0.3505,-0.3465,-0.3376,-0.3389,-0.3295,-0.3268,-0.3164,-0.3119,-0.2921,-0.2945,-0.2802,-0.2767,-0.2623,-0.2605,-0.2984,-0.3,-0.2869,-0.2871,-0.2872,-0.2873,0,-0.3077,-0.3158,-0.3175,-0.3283,-0.3344,-0.3336,-0.3426,-0.3372,-0.3366,-0.3245,-0.3221,-0.3177,-0.3045,-0.3003,-0.286,-0.28,-0.2663,-0.2585,-0.2433,-0.2381,-0.2581,-0.2599,-0.233,-0.2324,-0.2319,-0.2315,-0.2311,0,-0.3002,-0.2978,-0.3071,-0.3089,-0.3171,-0.3212,-0.3224,-0.329,-0.3234,-0.315,-0.307,-0.2951,-0.2765,-0.2549,-0.247,-0.2311,-0.2477,-0.2067,-0.2084,-0.2518,-0.2512,-0.2539,-0.2563,-0.1798,-0.1791,-0.1785,-0.178,0,-0.2858,-0.2889,-0.2903,-0.29,-0.2954,-0.2972,-0.3026,-0.297,-0.298,-0.2852,-0.268,-0.252,-0.2345,-0.208,-0.1951,-0.1871,-0.2088,-0.1935,-0.2361,-0.1988,-0.2006,-0.2006,-0.2048,-0.1726,-0.1731,-0.1735,-0.1738,-0.174,-0.2783,-0.2741,-0.2734,-0.2739,-0.2767,-0.272,-0.2651,-0.2636,-0.2472,-0.2195,-0.2249,-0.1908,-0.1908,-0.1519,-0.1466,-0.1496,-0.1635,-0.1593,-0.1615,-0.1643,-0.1634,-0.1645,-0.1296,-0.1298,-0.1301,-0.1303,-0.1305,0,-0.2626,-0.2603,-0.2592,-0.2545,-0.2471,-0.2554,-0.2495,-0.232,-0.204,-0.1796,-0.1526,-0.1242,-0.1016,-0.1099,-0.1017,-0.101,-0.1046,-0.1016,-0.1071,-0.1122,-0.1167,-0.1142,-0.0668,-0.0667,-0.0666,-0.0664,0,0,-0.253,-0.2444,-0.2422,-0.2266,-0.2244,-0.2079,-0.1993,-0.1724,-0.1518,-0.1041,-0.0809,-0.0682,-0.0874,-0.0678,-0.0711,-0.0672,-0.0876,-0.0633,-0.1129,-0.123,-0.1274,-0.1474,-0.1485,0,0,0,0,0]},{"header":{"parameterUnit":"m.s-1","parameterCategory":2,"la1":30.2991,"la2":30.254,"lo1":-89.0895,"lo2":-89.0444,"dy":0.0017,"dx":0.0017,"nx":28,"ny":28,"refTime":"2026-02-07T03:00:00:Z","depth":"2","parameterNumber":3,"parameterNumberName":"V-component_of_CURRENTS"},"data":[0,0,0,0,0,0,0,0,0,0,0,0,0,0,0,0,0,0,0,0,0,0,0,0,0,0,0,0,0,0,0,0,0,0,0,0,0,0,0,0,0,0,0,0,0,0,0,0,0,0,0,0,0,0,0,0,0,0,-0.0668,-0.0667,0,-0.0468,-0.0465,-0.0462,-0.0323,-0.0322,-0.0322,-0.0322,-0.0056,-0.0049,-0.0043,0,0,0,0,0,0,0,0,0,0,0,0,0,-0.0712,-0.0713,-0.0669,-0.0667,-0.0665,-0.0468,-0.0465,-0.0461,-0.0323,-0.0322,-0.0322,-0.0322,-0.0058,-0.005,-0.0042,0,0,0,0,0,0,0,0,0,0,0,0,0,-0.0614,-0.0713,-0.0669,-0.0578,-0.0568,-0.0469,-0.0465,-0.046,-0.0323,-0.0322,-0.0322,-0.0321,-0.0061,-0.0051,-0.0041,0.0011,0,0,-0.001,-0.0006,0,0,0,0,0,0,0,0,-0.062,-0.0612,-0.0593,-0.0584,-0.0573,-0.0426,-0.0383,-0.0302,-0.0323,-0.0408,-0.0322,-0.0321,-0.0179,-0.0159,-0.0113,0.0023,0.0035,-0.0009,-0.0003,0.0001,0.0004,0,0,0,0,0,0,0,-0.0627,-0.0618,-0.0581,-0.0591,-0.0579,-0.0472,-0.0459,-0.0365,-0.0292,-0.04,-0.0392,-0.0382,-0.0172,-0.0123,-0.0105,0.0039,-0.0009,-0.0,0.0006,0.001,0.0301,0.0302,0,0,0,0,0,0,-0.068,-0.0626,-0.0588,-0.0576,-0.0604,-0.0473,-0.0458,-0.0468,-0.0294,-0.027,-0.0382,-0.0376,-0.014,-0.0117,-0.0096,0.0085,0.0001,0.0011,0.0017,0.0299,0.0301,0.0303,0,0,0,0,0,0,-0.0682,-0.0679,-0.0596,-0.06,-0.0584,-0.0476,-0.0486,-0.0464,-0.0413,-0.0282,-0.0255,-0.0355,-0.0139,-0.011,-0.0033,0.0092,0.0015,0.0025,0.0297,0.03,0.0302,0.0377,0,0,0,0,0,0,-0.0684,-0.0681,-0.0693,-0.0606,-0.0586,-0.0537,-0.0487,-0.0461,-0.0412,-0.0401,-0.025,-0.0225,-0.0136,-0.0049,-0.0023,0.0105,0.0032,0.0295,0.0298,0.0301,0.0372,0.0381,0.0389,0,0,0,0,0,-0.0687,-0.0727,-0.0696,-0.069,-0.0612,-0.0538,-0.0516,-0.043,-0.0412,-0.0383,-0.0306,-0.0229,-0.0008,-0.0041,-0.0011,0.0123,0.0293,0.0297,0.0301,0.0368,0.0379,0.0389,0,0,0,0,0,0,-0.0767,-0.0714,-0.0678,-0.0704,-0.0622,-0.0517,-0.0493,-0.0441,-0.0355,-0.0351,-0.0233,-0.0202,-0.006,-0.0022,-0.0062,0.0208,0.0167,0.0177,0.0208,0.022,0.0228,0.0195,0.0041,0,0,0,0,0,-0.0791,-0.0807,-0.0715,-0.0739,-0.0697,-0.0595,-0.0554,-0.0497,-0.0418,-0.0378,-0.024,-0.0129,-0.0019,0.0044,0.0159,0.027,0.0294,0.0379,0.0387,0.0395,0.0384,0.0512,0.0532,0.0315,0.0315,0.0315,0,0,-0.0828,-0.081,-0.0813,-0.0755,-0.0685,-0.0593,-0.0566,-0.0516,-0.042,-0.0365,-0.0179,-0.0086,0.0011,0.017,0.0238,0.0216,0.0463,0.0399,0.0406,0.039,0.0518,0.054,0.0559,0.0317,0.0317,0.0317,0,0,-0.0881,-0.0888,-0.0874,-0.0809,-0.0722,-0.0634,-0.0624,-0.0475,-0.039,-0.0249,-0.0162,-0.0035,0.0157,0.0273,0.0337,0.0441,0.0508,0.0501,0.053,0.0656,0.0676,0.0693,0.0725,0.0745,0.0502,0.0503,0.0503,0,-0.0908,-0.0905,-0.0857,-0.0804,-0.0752,-0.0649,-0.0579,-0.0467,-0.0298,-0.0229,-0.0185,0.0116,0.0218,0.0383,0.0437,0.0475,0.0506,0.0491,0.067,0.0688,0.0705,0.0733,0.0754,0.0507,0.0506,0.0506,0.0505,0,-0.0916,-0.0896,-0.0892,-0.0775,-0.0696,-0.0656,-0.0489,-0.0371,-0.0251,-0.0128,0.0075,0.0224,0.0381,0.0476,0.0493,0.0679,0.0648,0.0674,0.0647,0.0732,0.0755,0.0776,0.0512,0.0511,0.051,0.0509,0,0,-0.1006,-0.0911,-0.0903,-0.085,-0.0697,-0.0635,-0.047,-0.03,-0.0208,0.0018,0.0158,0.0396,0.0464,0.0534,0.0622,0.0745,0.0902,0.0752,0.0757,0.0785,0.1116,0.0824,0.0818,0.0968,0.0972,0.0976,0.1075,0,-0.1011,-0.0965,-0.0876,-0.077,-0.0723,-0.0573,-0.0428,-0.0265,-0.0105,0.0075,0.0246,0.0418,0.049,0.0567,0.0709,0.0848,0.0962,0.0867,0.1025,0.1028,0.0764,0.0835,0.0827,0.0892,0.1095,0.1099,0.1101,0,-0.1018,-0.1003,-0.0937,-0.0801,-0.0754,-0.0637,-0.044,-0.0296,-0.0056,0.006,0.0245,0.0379,0.0588,0.0641,0.0928,0.0859,0.0985,0.1098,0.1105,0.0817,0.0775,0.0846,0.0921,0.1135,0.1132,0.113,0.1127,0,-0.1139,-0.1025,-0.0998,-0.0956,-0.077,-0.0678,-0.0539,-0.0309,-0.0197,0.0045,0.0123,0.039,0.0503,0.0741,0.0914,0.0956,0.1181,0.1273,0.1131,0.111,0.1118,0.1086,0.1491,0.1491,0.1491,0.1491,0.1491,0,-0.1201,-0.1161,-0.1056,-0.1041,-0.0955,-0.0777,-0.063,-0.0469,-0.0256,-0.015,0.0089,0.0174,0.054,0.0691,0.0898,0.0997,0.1164,0.1124,0.1127,0.1131,0.11,0.1324,0.1304,0.1494,0.1494,0.1493,0.1492,0,-0.1292,-0.1248,-0.1206,-0.1066,-0.1012,-0.0939,-0.0701,-0.0592,-0.0411,-0.0272,-0.0206,0.0036,0.0195,0.0465,0.08,0.09,0.1082,0.1079,0.0976,0.0961,0.095,0.0933,0.1001,0.0992,0.0984,0.0977,0.0972,0,-0.1316,-0.1329,-0.1257,-0.1225,-0.1142,-0.1015,-0.0908,-0.0687,-0.0588,-0.0394,-0.0356,-0.0192,-0.0116,0.016,0.0423,0.0672,0.0817,0.076,0.0845,0.0909,0.0908,0.0902,0.0895,0.092,0.0915,0.0911,0.0907,0,-0.1351,-0.1348,-0.1319,-0.1299,-0.1211,-0.1106,-0.0955,-0.0931,-0.0703,-0.0649,-0.0591,-0.0535,-0.0319,-0.0101,0.0132,0.0309,0.0718,0.066,0.0859,0.0954,0.0816,0.0818,0.082,0.0867,0.0871,0.0874,0.0876,0.0878,-0.1352,-0.1363,-0.1353,-0.1312,-0.1238,-0.1164,-0.1088,-0.1005,-0.0941,-0.082,-0.0814,-0.0705,-0.048,-0.0179,0.0035,0.0297,0.033,0.0504,0.053,0.0558,0.0438,0.0285,0.0213,0.0213,0.0214,0.0214,0.0214,0,-0.134,-0.1348,-0.1336,-0.129,-0.1232,-0.1164,-0.1074,-0.1019,-0.1011,-0.0932,-0.09,-0.0698,-0.0531,-0.0244,0.0088,0.0217,0.0398,0.0286,0.055,0.0581,0.061,0.0508,0.0296,0.0297,0.0298,0.0299,0,0,-0.1326,-0.1339,-0.1354,-0.1282,-0.1225,-0.111,-0.1066,-0.1048,-0.0976,-0.0927,-0.0824,-0.0769,-0.0508,-0.0246,-0.0042,0.016,0.0365,0.0196,0.0102,0.0418,0.0449,0.068,0.0542,0,0,0,0,0]}],[{"header":{"parameterUnit":"m.s-1","parameterCategory":2,"la1":30.2991,"la2":30.254,"lo1":-89.0895,"lo2":-89.0444,"dy":0.0017,"dx":0.0017,"nx":28,"ny":28,"refTime":"2026-02-07T03:00:00:Z","depth":"4","parameterNumber":2,"parameterNumberName":"U-component_of_CURRENTS"},"data":[0,0,0,0,0,0,0,0,0,0,0,0,0,0,0,0,0,0,0,0,0,0,0,0,0,0,0,0,0,0,0,0,0,0,0,0,0,0,0,0,0,0,0,0,0,0,0,0,0,0,0,0,0,0,0,0,0,0,-0.146,-0.146,0,-0.1496,-0.1496,-0.1496,-0.1633,-0.1636,-0.164,-0.1643,-0.1776,-0.1776,-0.1776,0,0,0,0,0,0,0,0,0,0,0,0,0,-0.1419,-0.1419,-0.146,-0.146,-0.1461,-0.1496,-0.1496,-0.1496,-0.1632,-0.1636,-0.1641,-0.1645,-0.1775,-0.1776,-0.1776,0,0,0,0,0,0,0,0,0,0,0,0,0,-0.144,-0.142,-0.1459,-0.1537,-0.1545,-0.1496,-0.1496,-0.1496,-0.1631,-0.1636,-0.1642,-0.1647,-0.1775,-0.1776,-0.1776,-0.167,0,0,-0.1777,-0.1777,0,0,0,0,0,0,0,0,-0.1438,-0.144,-0.1525,-0.1532,-0.154,-0.157,-0.1531,-0.1561,-0.163,-0.1593,-0.1643,-0.165,-0.1715,-0.172,-0.1707,-0.1676,-0.1682,-0.1777,-0.1777,-0.1777,-0.1777,0,0,0,0,0,0,0,-0.1437,-0.1439,-0.1469,-0.1525,-0.1535,-0.1541,-0.155,-0.1536,-0.1621,-0.1596,-0.1608,-0.1618,-0.172,-0.1706,-0.1711,-0.1683,-0.1777,-0.1777,-0.1777,-0.1777,-0.183,-0.1831,0,0,0,0,0,0,-0.1441,-0.1437,-0.1468,-0.147,-0.1508,-0.1538,-0.1548,-0.1551,-0.1619,-0.1636,-0.1614,-0.1625,-0.1703,-0.1711,-0.1717,-0.179,-0.1777,-0.1777,-0.1777,-0.1829,-0.183,-0.1831,0,0,0,0,0,0,-0.144,-0.1443,-0.1466,-0.146,-0.1464,-0.1534,-0.1535,-0.1549,-0.1581,-0.1632,-0.1651,-0.164,-0.1707,-0.1716,-0.1769,-0.179,-0.1777,-0.1778,-0.1827,-0.1829,-0.1831,-0.1813,0,0,0,0,0,0,-0.1438,-0.1442,-0.1441,-0.146,-0.1465,-0.1459,-0.1531,-0.1546,-0.1579,-0.1595,-0.1658,-0.1674,-0.1712,-0.1768,-0.1769,-0.179,-0.1778,-0.1826,-0.1828,-0.183,-0.1812,-0.1814,-0.1816,0,0,0,0,0,-0.1436,-0.1415,-0.144,-0.1445,-0.1463,-0.1458,-0.146,-0.1524,-0.1576,-0.1575,-0.1651,-0.1675,-0.1785,-0.1768,-0.1769,-0.1791,-0.1824,-0.1827,-0.183,-0.1811,-0.1814,-0.1816,0,0,0,0,0,0,-0.1387,-0.1428,-0.1457,-0.1447,-0.1464,-0.1485,-0.1481,-0.1524,-0.1572,-0.1605,-0.1667,-0.1686,-0.1743,-0.1762,-0.1742,-0.1819,-0.1815,-0.1818,-0.1801,-0.1804,-0.1805,-0.1794,-0.1778,0,0,0,0,0,-0.1373,-0.1388,-0.141,-0.1408,-0.1405,-0.1442,-0.1449,-0.1495,-0.154,-0.1568,-0.1634,-0.1699,-0.1737,-0.1772,-0.1804,-0.1818,-0.1812,-0.1843,-0.1845,-0.1846,-0.1841,-0.186,-0.1862,-0.1841,-0.1841,-0.1841,0,0,-0.1357,-0.138,-0.139,-0.1401,-0.1411,-0.1414,-0.1459,-0.1472,-0.1503,-0.1568,-0.1643,-0.1695,-0.1742,-0.1788,-0.1816,-0.1819,-0.1845,-0.185,-0.185,-0.1845,-0.1863,-0.1865,-0.1867,-0.1843,-0.1842,-0.1842,0,0,-0.131,-0.1341,-0.1324,-0.1347,-0.1373,-0.1396,-0.1406,-0.1451,-0.1495,-0.1547,-0.1621,-0.1693,-0.175,-0.1802,-0.1827,-0.1846,-0.1847,-0.187,-0.1874,-0.1892,-0.1893,-0.1894,-0.1857,-0.1855,-0.1879,-0.1879,-0.1879,0,-0.1261,-0.1283,-0.1315,-0.131,-0.1335,-0.1393,-0.1385,-0.1417,-0.1497,-0.1527,-0.1585,-0.1694,-0.1754,-0.1791,-0.1839,-0.1848,-0.1843,-0.1857,-0.1891,-0.1893,-0.1894,-0.1856,-0.1854,-0.1878,-0.1879,-0.1879,-0.1879,0,-0.1216,-0.1245,-0.1233,-0.1266,-0.1284,-0.1292,-0.1346,-0.1387,-0.1462,-0.1518,-0.1588,-0.1666,-0.1743,-0.1777,-0.1826,-0.1869,-0.1854,-0.1881,-0.1877,-0.1894,-0.1854,-0.1852,-0.1878,-0.1878,-0.1878,-0.1878,0,0,-0.1061,-0.117,-0.1174,-0.1206,-0.1274,-0.1279,-0.132,-0.1359,-0.1395,-0.1492,-0.1539,-0.164,-0.1707,-0.1741,-0.1802,-0.184,-0.1864,-0.1883,-0.1885,-0.1829,-0.1866,-0.1759,-0.1746,-0.1903,-0.1903,-0.1904,-0.1821,0,-0.1001,-0.1024,-0.109,-0.1125,-0.1141,-0.1222,-0.126,-0.1325,-0.1389,-0.1461,-0.1539,-0.1613,-0.1681,-0.1735,-0.1784,-0.1862,-0.1864,-0.1881,-0.1873,-0.1871,-0.1761,-0.1743,-0.1905,-0.1819,-0.1819,-0.1818,-0.1818,0,-0.0931,-0.0973,-0.0999,-0.1098,-0.1102,-0.1136,-0.1205,-0.1249,-0.1348,-0.14,-0.1476,-0.1555,-0.1649,-0.1702,-0.1783,-0.1796,-0.1829,-0.1863,-0.1861,-0.1767,-0.1762,-0.1809,-0.1815,-0.1815,-0.1815,-0.1815,-0.1816,0,-0.0846,-0.0908,-0.0943,-0.0981,-0.1085,-0.1105,-0.1157,-0.1243,-0.1276,-0.1374,-0.1388,-0.1511,-0.157,-0.1644,-0.1746,-0.1779,-0.18,-0.1846,-0.1741,-0.1732,-0.1861,-0.1861,-0.1854,-0.1854,-0.1854,-0.1855,-0.1855,0,-0.0775,-0.08,-0.0919,-0.0947,-0.0983,-0.107,-0.1101,-0.1159,-0.124,-0.1262,-0.1362,-0.1363,-0.1568,-0.1614,-0.1704,-0.1701,-0.1756,-0.1718,-0.1707,-0.1852,-0.1852,-0.1857,-0.1858,-0.1851,-0.1852,-0.1853,-0.1853,0,-0.0679,-0.0765,-0.081,-0.0921,-0.0957,-0.0987,-0.1074,-0.1092,-0.115,-0.1168,-0.1198,-0.1288,-0.1345,-0.1464,-0.1591,-0.1609,-0.1646,-0.1616,-0.171,-0.171,-0.1569,-0.1571,-0.1493,-0.1488,-0.1485,-0.1481,-0.1479,0,-0.0629,-0.066,-0.0782,-0.0808,-0.0857,-0.092,-0.0961,-0.1063,-0.1071,-0.1087,-0.1078,-0.1137,-0.1196,-0.1213,-0.1401,-0.1492,-0.1507,-0.1488,-0.1582,-0.1536,-0.1534,-0.1542,-0.1548,-0.1473,-0.1472,-0.1471,-0.147,0,-0.0553,-0.0614,-0.0662,-0.0724,-0.0775,-0.0808,-0.0865,-0.0859,-0.0942,-0.0982,-0.0919,-0.0958,-0.0993,-0.1137,-0.1201,-0.1282,-0.1502,-0.145,-0.1459,-0.1548,-0.1511,-0.1514,-0.1525,-0.1457,-0.1459,-0.146,-0.1461,0,-0.0507,-0.0517,-0.0606,-0.0635,-0.0678,-0.0679,-0.0724,-0.0729,-0.0764,-0.0792,-0.0779,-0.0827,-0.0939,-0.1021,-0.1089,-0.116,-0.1194,-0.1198,-0.1222,-0.1238,-0.1218,-0.1138,-0.0935,0,0,0,0,0,-0.0477,-0.0487,-0.0507,-0.055,-0.0563,-0.0594,-0.0651,-0.0696,-0.0767,-0.0686,-0.0731,-0.0754,-0.0827,-0.0887,-0.0931,-0.1064,-0.1242,-0.1115,-0.1266,-0.1385,-0.14,-0.1414,0,0,0,0,0,0,-0.0473,-0.0498,-0.0499,-0.0465,-0.0445,-0.0475,-0.0501,-0.055,-0.0521,-0.0581,-0.0629,-0.0695,-0.0804,-0.0777,-0.0898,-0.0933,-0.1017,-0.1193,-0.1192,-0.1377,-0.139,-0.1402,-0.1422,0,0,0,0,0]},{"header":{"parameterUnit":"m.s-1","parameterCategory":2,"la1":30.2991,"la2":30.254,"lo1":-89.0895,"lo2":-89.0444,"dy":0.0017,"dx":0.0017,"nx":28,"ny":28,"refTime":"2026-02-07T03:00:00:Z","depth":"4","parameterNumber":3,"parameterNumberName":"V-component_of_CURRENTS"},"data":[0,0,0,0,0,0,0,0,0,0,0,0,0,0,0,0,0,0,0,0,0,0,0,0,0,0,0,0,0,0,0,0,0,0,0,0,0,0,0,0,0,0,0,0,0,0,0,0,0,0,0,0,0,0,0,0,0,0,-0.0735,-0.0734,0,-0.0696,-0.0696,-0.0696,-0.0647,-0.0646,-0.0645,-0.0644,-0.0593,-0.0593,-0.0592,0,0,0,0,0,0,0,0,0,0,0,0,0,-0.0662,-0.0664,-0.0735,-0.0734,-0.0733,-0.0696,-0.0696,-0.0696,-0.0647,-0.0646,-0.0645,-0.0643,-0.0593,-0.0593,-0.0592,0,0,0,0,0,0,0,0,0,0,0,0,0,-0.0669,-0.0665,-0.0735,-0.0702,-0.0698,-0.0696,-0.0696,-0.0696,-0.0648,-0.0646,-0.0644,-0.0643,-0.0593,-0.0593,-0.0592,-0.0623,0,0,-0.0591,-0.0591,0,0,0,0,0,0,0,0,-0.0669,-0.0673,-0.0707,-0.0704,-0.07,-0.0672,-0.0651,-0.067,-0.0648,-0.0671,-0.0644,-0.0642,-0.0617,-0.0614,-0.0616,-0.0621,-0.0619,-0.0591,-0.059,-0.059,-0.059,0,0,0,0,0,0,0,-0.0669,-0.0673,-0.0723,-0.0707,-0.0702,-0.0652,-0.0653,-0.0654,-0.0657,-0.0669,-0.0664,-0.0654,-0.0615,-0.0617,-0.0615,-0.0618,-0.0591,-0.059,-0.059,-0.059,-0.0636,-0.0637,0,0,0,0,0,0,-0.0674,-0.0674,-0.0725,-0.0722,-0.0676,-0.0655,-0.0656,-0.0685,-0.0657,-0.065,-0.0656,-0.0652,-0.0619,-0.0615,-0.0613,-0.0654,-0.059,-0.059,-0.059,-0.0634,-0.0636,-0.0638,0,0,0,0,0,0,-0.0673,-0.0681,-0.0726,-0.0691,-0.0693,-0.0659,-0.0692,-0.0686,-0.0697,-0.0646,-0.0639,-0.0674,-0.0617,-0.0613,-0.0628,-0.0651,-0.059,-0.0589,-0.0633,-0.0635,-0.0637,-0.0732,0,0,0,0,0,0,-0.0672,-0.0682,-0.0715,-0.0693,-0.0695,-0.0746,-0.0693,-0.0686,-0.0691,-0.0687,-0.066,-0.0653,-0.0616,-0.0629,-0.0628,-0.0649,-0.0589,-0.0631,-0.0634,-0.0636,-0.0727,-0.0737,-0.0746,0,0,0,0,0,-0.067,-0.0724,-0.0718,-0.0723,-0.074,-0.0748,-0.0746,-0.0715,-0.0694,-0.0718,-0.0693,-0.0654,-0.0645,-0.0631,-0.0628,-0.065,-0.0629,-0.0633,-0.0636,-0.0723,-0.0735,-0.0746,0,0,0,0,0,0,-0.0711,-0.0723,-0.0716,-0.0772,-0.0767,-0.0738,-0.0757,-0.0735,-0.0737,-0.0735,-0.0683,-0.0676,-0.0694,-0.0668,-0.0653,-0.0671,-0.0627,-0.0631,-0.0694,-0.0706,-0.0715,-0.073,-0.0588,0,0,0,0,0,-0.0736,-0.0783,-0.0772,-0.0818,-0.0823,-0.0796,-0.0798,-0.0781,-0.0769,-0.0768,-0.0743,-0.072,-0.0707,-0.0703,-0.0691,-0.0714,-0.0676,-0.0723,-0.0733,-0.0741,-0.0752,-0.0739,-0.0748,-0.0649,-0.0649,-0.0649,0,0,-0.0762,-0.0776,-0.0801,-0.083,-0.0826,-0.0836,-0.0796,-0.0815,-0.0821,-0.0764,-0.0782,-0.0761,-0.0722,-0.0737,-0.0742,-0.0718,-0.0744,-0.0745,-0.0752,-0.0759,-0.0744,-0.0753,-0.0762,-0.0651,-0.0651,-0.065,0,0,-0.0807,-0.0855,-0.0888,-0.0897,-0.09,-0.089,-0.0902,-0.089,-0.089,-0.091,-0.0858,-0.0858,-0.0847,-0.0817,-0.08,-0.0861,-0.0798,-0.0854,-0.0914,-0.0902,-0.091,-0.0916,-0.0856,-0.0857,-0.0856,-0.0857,-0.0857,0,-0.0831,-0.0872,-0.0897,-0.0918,-0.092,-0.0918,-0.093,-0.0944,-0.0935,-0.0938,-0.093,-0.0908,-0.0883,-0.0876,-0.0896,-0.0882,-0.0851,-0.0872,-0.0914,-0.092,-0.0925,-0.0862,-0.0861,-0.0862,-0.0861,-0.0861,-0.086,0,-0.0869,-0.091,-0.0936,-0.0963,-0.098,-0.1004,-0.1008,-0.1036,-0.1039,-0.103,-0.1046,-0.102,-0.0996,-0.0994,-0.0968,-0.0987,-0.0943,-0.0929,-0.0885,-0.0941,-0.087,-0.0868,-0.0869,-0.0867,-0.0866,-0.0864,0,0,-0.0888,-0.0948,-0.0955,-0.0964,-0.1004,-0.1013,-0.1061,-0.1079,-0.1094,-0.1115,-0.112,-0.1123,-0.1107,-0.1088,-0.1051,-0.1055,-0.1061,-0.1022,-0.1019,-0.0961,-0.1004,-0.0896,-0.0882,-0.1061,-0.1062,-0.1062,-0.093,0,-0.0897,-0.0939,-0.0969,-0.1004,-0.1019,-0.1051,-0.1086,-0.1114,-0.1136,-0.1154,-0.1153,-0.115,-0.1141,-0.1128,-0.1137,-0.1083,-0.1064,-0.1096,-0.0959,-0.0954,-0.0852,-0.088,-0.1065,-0.0928,-0.0927,-0.0927,-0.0926,0,-0.0897,-0.0928,-0.0961,-0.1009,-0.1019,-0.1053,-0.1099,-0.1126,-0.1171,-0.1189,-0.1208,-0.1195,-0.12,-0.1186,-0.1137,-0.116,-0.1095,-0.1054,-0.1048,-0.0916,-0.0843,-0.0866,-0.0921,-0.0921,-0.0922,-0.0922,-0.0923,0,-0.0855,-0.0914,-0.0938,-0.0956,-0.1016,-0.105,-0.1087,-0.114,-0.1158,-0.1206,-0.1205,-0.1228,-0.121,-0.1182,-0.1107,-0.1126,-0.1035,-0.1034,-0.0863,-0.0852,-0.0945,-0.094,-0.0989,-0.099,-0.099,-0.099,-0.0991,0,-0.0831,-0.0855,-0.0929,-0.0942,-0.098,-0.1031,-0.1067,-0.112,-0.1169,-0.1175,-0.1208,-0.1198,-0.1218,-0.1162,-0.1108,-0.0968,-0.1023,-0.0872,-0.0822,-0.0983,-0.0984,-0.0941,-0.0937,-0.0985,-0.0986,-0.0987,-0.0988,0,-0.0776,-0.0825,-0.0855,-0.0932,-0.0961,-0.0987,-0.1059,-0.108,-0.1128,-0.1134,-0.1145,-0.1179,-0.1118,-0.1073,-0.1007,-0.093,-0.0829,-0.0752,-0.0893,-0.0853,-0.065,-0.0653,-0.0563,-0.0558,-0.0554,-0.0551,-0.0548,0,-0.0749,-0.0761,-0.0838,-0.0859,-0.0903,-0.0949,-0.0984,-0.1062,-0.1079,-0.11,-0.1093,-0.1061,-0.1054,-0.0877,-0.0853,-0.071,-0.0684,-0.0607,-0.068,-0.0651,-0.0612,-0.0621,-0.0629,-0.0542,-0.0541,-0.0539,-0.0538,0,-0.0701,-0.0737,-0.0767,-0.0819,-0.0864,-0.0891,-0.0951,-0.0953,-0.1012,-0.1038,-0.1026,-0.0967,-0.0877,-0.0833,-0.0705,-0.0613,-0.0666,-0.0566,-0.0575,-0.0642,-0.0625,-0.0591,-0.0604,-0.0525,-0.0527,-0.0528,-0.0529,0,-0.0671,-0.068,-0.0736,-0.0774,-0.0824,-0.0851,-0.0872,-0.0899,-0.0926,-0.0958,-0.0951,-0.09,-0.0919,-0.0773,-0.0666,-0.0561,-0.0542,-0.0507,-0.0519,-0.0533,-0.0575,-0.0552,-0.0386,0,0,0,0,0,-0.064,-0.0655,-0.069,-0.0739,-0.0787,-0.0825,-0.0864,-0.088,-0.0914,-0.089,-0.0929,-0.0849,-0.0717,-0.0698,-0.0571,-0.0578,-0.0512,-0.0418,-0.0474,-0.0449,-0.0465,-0.0512,0,0,0,0,0,0,-0.0617,-0.0655,-0.0679,-0.072,-0.0741,-0.0796,-0.0817,-0.0835,-0.083,-0.0855,-0.0808,-0.0789,-0.0687,-0.0798,-0.0567,-0.0538,-0.0543,-0.0378,-0.0373,-0.044,-0.0454,-0.0467,-0.0521,0,0,0,0,0]}]]